Regional Weather Roundup
Issued by NWS

Home | Current Version | Previous Version | Graphics & Text | Print | Product List | Glossary On
Versions: 1 2 3 4 5 6 7 8 9 10 11 12 13 14 15 16 17 18 19 20 21 22 23 24 25 26 27 28 29 30 31 32 33 34 35 36 37 38 39 40 41 42 43 44 45 46 47 48 49 50
000
ASUS43 KIND 210059
RWRIN

WEATHER ROUNDUP FOR INDIANA
NATIONAL WEATHER SERVICE INDIANAPOLIS IN
800 PM EST MON NOV 20 2017

NOTE: "FAIR" INDICATES FEW OR NO CLOUDS BELOW 12,000 FEET WITH NO
SIGNIFICANT WEATHER AND/OR OBSTRUCTIONS TO VISIBILITY.

* - STATION DOES NOT REPORT WEATHER SUCH AS PRECIPITATION OR FOG.

+ - STATION NOT QUALITY CONTROLLED BY THE NATIONAL WEATHER SERVICE.
    USE DATA WITH CAUTION...ESPECIALLY DEWPOINT AND RELATIVE
    HUMIDITY OBSERVATIONS.

INZ001>003-010>013-019-020-210200-
NORTHWEST INDIANA

CITY           SKY/WX    TMP DP  RH WIND       PRES   REMARKS
KNOX *+        CLEAR     43  30  61 S16G23    29.82F
LA PORTE +     CLEAR     42  31  63 S14G22    29.81F
MICHIGAN CITY+ CLEAR     43  30  61 S16G30    29.79S
MONTICELLO +   CLEAR     43  28  54 S16G22    29.87F
RENSSELAER +   CLEAR     43  27  52 S15       29.84F

$$

LMZ046-743>745-210200-
SOUTHERN LAKE MICHIGAN

STATION/POSITION TIME  TEMP    WIND        PRES    WAVE
                       AIR SEA DIR/SP/G            HT
                 (UTC) (F)     (DEG/KT/KT) (MB)    (FT)
BURNS HARBOR     0040   46     190/ 22/ 30 1008.8F
MICHIGAN CITY    0030   46     170/ 22/ 27   N/A

$$

INZ004-005-014>016-021>024-210200-
NORTH CENTRAL INDIANA

CITY           SKY/WX    TMP DP  RH WIND       PRES   REMARKS
ELKHART        CLEAR     45  28  53 S12G17    29.82F
GOSHEN         CLEAR     44  25  47 S21G30    29.83F
PERU/GRISSOM   CLEAR     42  26  53 S17       29.89F
SOUTH BEND     CLEAR     43  30  60 S20G26    29.82F
WARSAW +       CLEAR     43  27  52 S10G20    29.86F

$$

INZ006>009-017-018-025>027-210200-
NORTHEAST INDIANA

CITY           SKY/WX    TMP DP  RH WIND       PRES   REMARKS
AUBURN +       CLEAR     41  27  56 S14G21    29.89F
FORT WAYNE     PTCLDY    42  29  59 S18       29.91F
KENDALLVILLE + CLEAR     41  28  59 S16G24    29.86F

$$

INZ028-029-035-036-043>045-051>053-210200-
WEST CENTRAL INDIANA

CITY           SKY/WX    TMP DP  RH WIND       PRES   REMARKS
CRAWFORDSVL +  CLEAR     39  27  61 S14         N/A  WCI  31
GREENCASTLE +  CLEAR     43  21  42 S12G20    29.96F
LAFAYETTE      CLEAR     42  29  59 S10G18    29.89F
TERRE HAUTE    CLEAR     44  26  49 S14       29.96F

$$

INZ030>032-037>040-046>048-054>057-064-065-210200-
CENTRAL INDIANA

CITY           SKY/WX    TMP DP  RH WIND       PRES   REMARKS
COLUMBUS       CLEAR     41  21  45 S10       30.02S
FRANKFORT +    CLEAR     43  29  57 S14G21    29.92F
INDIANAPOLIS   PTCLDY    42  24  49 S13       29.97F
-EAGLE CREEK   CLEAR     43  23  45 S8        29.95F
KOKOMO +       CLEAR     42  27  55 S13       29.91F
MT COMFORT *+  CLEAR     39  30  70 S12       29.97F WCI  32
SHELBYVILLE    CLEAR     42  24  49 S10       29.99F

$$

INZ033-034-041-042-049-050-058-059-210200-
EAST CENTRAL INDIANA

CITY           SKY/WX    TMP DP  RH WIND       PRES   REMARKS
MUNCIE         CLEAR     42  25  50 S18       29.95F
RICHMOND +     CLEAR     32  28  86 S9        30.01F WCI  24

$$

INZ060-061-067>069-081>083-085>088-210200-
SOUTHWEST INDIANA

CITY           SKY/WX    TMP DP  RH WIND       PRES   REMARKS
EVANSVILLE     CLEAR     45  24  43 S9        30.04F
HUNTINGBURG +  CLEAR     43  25  49 S6        30.04F

$$

INZ062-063-066-070>080-084-089>092-210200-
SOUTH CENTRAL AND SOUTHEAST INDIANA

CITY           SKY/WX    TMP DP  RH WIND       PRES   REMARKS
BLOOMINGTON    CLEAR     42  23  46 S8        29.99F
MADISON *+     CLOUDY    41  25  52 SE8       30.06F
SEYMOUR +      CLEAR     41  25  52 S8        30.03F

$$




USA.gov is the U.S. government's official web portal to all federal, state and local government web resources and services.